This is the latest recevied weather packets stored in our database for station/object KQ4WWD. If no packets are shown the sender has not sent any weather packets the latest 10 day(s).
| Time | Temp. | Humidity | Pressure | Rain* | Wind** | Luminosity | Snow |
|---|---|---|---|---|---|---|---|
| 1777441927 | 20° C | 91% | 1016.6 hPa | 0 mm | - | 0 W/m² | - |
| 1777441623 | 20° C | 91% | 1016.5 hPa | 0 mm | - | 0 W/m² | - |
| 1777441319 | 20.56° C | 91% | 1016.4 hPa | 0 mm | - | 0 W/m² | - |
| 1777441014 | 20.56° C | 90% | 1016.6 hPa | 0 mm | - | 0 W/m² | - |
| 1777440710 | 20.56° C | 90% | 1016.9 hPa | 0 mm | - | 0 W/m² | - |
| 1777440405 | 20.56° C | 90% | 1016.9 hPa | 0 mm | - | 0 W/m² | - |
| 1777440102 | 20.56° C | 90% | 1017 hPa | 0 mm | - | 0 W/m² | - |
| 1777439797 | 20.56° C | 90% | 1017.2 hPa | 0 mm | - | 0 W/m² | - |
| 1777439494 | 20.56° C | 90% | 1017.3 hPa | 0 mm | - | 0 W/m² | - |
| 1777439189 | 20.56° C | 90% | 1017.3 hPa | 0 mm | - | 0 W/m² | - |
| 1777438886 | 20.56° C | 90% | 1017.3 hPa | 0 mm | - | 0 W/m² | - |
| 1777438583 | 20.56° C | 90% | 1017.3 hPa | 0 mm | - | 0 W/m² | - |
| 1777438279 | 21.11° C | 89% | 1017.4 hPa | 0 mm | - | 0 W/m² | - |
| 1777437974 | 21.11° C | 89% | 1017.5 hPa | 0 mm | - | 0 W/m² | - |
| 1777437671 | 21.11° C | 89% | 1017.4 hPa | 0 mm | - | 0 W/m² | - |
| 1777437368 | 21.11° C | 89% | 1017.4 hPa | 0 mm | - | 0 W/m² | - |
| 1777437064 | 21.67° C | 88% | 1017.4 hPa | 0 mm | - | 0 W/m² | - |
| 1777436761 | 21.67° C | 88% | 1017.4 hPa | 0 mm | - | 0 W/m² | - |
| 1777436457 | 21.67° C | 88% | 1017.4 hPa | 0 mm | - | 0 W/m² | - |
| 1777436154 | 22.22° C | 87% | 1017 hPa | 0 mm | - | 0 W/m² | - |
| 1777435851 | 22.22° C | 87% | 1016.9 hPa | 0 mm | - | 0 W/m² | - |
| 1777435546 | 21.67° C | 87% | 1016.8 hPa | 0 mm | - | 0 W/m² | - |
| 1777435242 | 21.67° C | 88% | 1016.9 hPa | 0 mm | - | 0 W/m² | - |
| 1777434941 | 21.67° C | 88% | 1017.1 hPa | 0 mm | - | 0 W/m² | - |
| 1777434637 | 21.67° C | 87% | 1016.8 hPa | 0 mm | - | 0 W/m² | - |
* Rain latest hour (hover to see other rain measurements)
** Current wind speed in m/s (hover to see current wind gust speed)